sat.trackr.live / text

‹ back to catalog

STARLINK-1653

NORAD 46352 · 2020-062AD

PAYLOAD ACTIVE UNKNOWN

§ Identity

Operator
Country
US
Launch date
2020-09-03
Launch site
AFETR
Launch vehicle
Mass (kg)
RCS (m²)

Purposes: comms

External: N2YO · Heavens-Above · Gunter

§ Orbital elements

Epoch: 2026-08-19T00:43:06.436704Z

Period
88.29 min
Inclination
53.0157°
Eccentricity
0.0001998
Mean motion
16.31062160 rev/d
Perigee alt
188.4 km
Apogee alt
191.0 km
Semi-major
6,567.8 km
B*
8.6156e-4
RAAN
228.9900°
Arg perigee
352.5340°
Mean anomaly
7.5672°
Rev number
33,072

§ Raw data

STARLINK-16531 46352U 20062AD  26231.02993561  .04459457  12141-4  86156-3 0  99992 46352  53.0157 228.9900 0001998 352.5340   7.5672 16.31062160330720

JSON: /api/v1/satellites/46352 · /tle

For live sub-satellite position, see the globe view (requires WebGL).

§ Visibility from observer

Set your observer location to see the next 7 days of passes ≥ 10°. The values pass through the URL so the page stays shareable.

No JS? Fill the form by hand. The geolocation button needs JavaScript.